Weather History for Provo, UT

Change the Weather History Date:

Tuesday, January 8, 2013

  Actual Average Record
Temperature  
Mean Temperature 22 °F -  
Max Temperature 26 °F 34 °F 50 °F (1983)
Min Temperature 15 °F 21 °F 4 °F (1989)
Degree Days  
Heating Degree Days 44    
Moisture  
Dew Point 17 °F    
Average Humidity 84    
Maximum Humidity 93    
Minimum Humidity 69    
Precipitation  
Precipitation 0.00 in - - ()
Sea Level Pressure  
Sea Level Pressure 30.29 in    
Wind  
Wind Speed 1 mph (SSE)    
Max Wind Speed 5 mph    
Max Gust Speed -    
Visibility 3 miles    
Events      
Averages and records for this station are not official NWS values.
T = Trace of Precipitation, MM = Missing Value Source: NWS Daily Summary

Daily Weather History Graph

Daily Weather History Graph

Search for Another Location

Airport:

Trip Planner

Search our weather history database for the weather conditions in past years. The results will help you decide how hot, cold, wet, or windy it might be!

Date:

Astronomy

Jan. 08, 2013 Rise Set
Actual Time 7:49 AM MST 5:18 PM MST
Civil Twilight 7:19 AM MST 5:48 PM MST
Nautical Twilight 6:45 AM MST 6:22 PM MST
Astronomical Twilight 6:12 AM MST 6:55 PM MST
Moon 4:26 AM MST (1/8) 2:24 PM MST (1/8)
Length of Visible Light 10h 29m
Length of Day
9h 29m
Waning Crescent, 13% of the Moon is Illuminated
Jan 8
Waning Crescent
Jan 11
New
Jan 18
First Quarter
Jan 26
Full
Feb 3
Last Quarter

Hourly Weather History & Observations

Time (MST) Temp. Windchill Dew Point Humidity Pressure Visibility Wind Dir Wind Speed Gust Speed Precip Events Conditions
12:15 AM 19.4 °F 12.8 °F 15.8 °F 86% 30.20 in 3.0 mi South 4.6 mph - N/A   Overcast
12:35 AM 19.4 °F - 15.8 °F 86% 30.21 in 3.0 mi Calm Calm - N/A   Overcast
1:15 AM 19.4 °F - 14.0 °F 80% 30.20 in 3.0 mi Calm Calm - N/A   Overcast
1:35 AM 19.4 °F - 15.8 °F 86% 30.22 in 3.0 mi Calm Calm - N/A   Overcast
1:55 AM 19.4 °F - 14.0 °F 80% 30.22 in 4.0 mi Calm Calm - N/A   Overcast
2:15 AM 19.4 °F - 14.0 °F 80% 30.21 in 3.0 mi Calm Calm - N/A   Overcast
2:35 AM 19.4 °F - 15.8 °F 86% 30.22 in 4.0 mi Calm Calm - N/A   Overcast
2:55 AM 19.4 °F - 15.8 °F 86% 30.22 in 3.0 mi Calm Calm - N/A   Overcast
3:15 AM 19.4 °F 14.3 °F 15.8 °F 86% 30.23 in 3.0 mi NNW 3.5 mph - N/A   Overcast
3:55 AM 19.4 °F - 15.8 °F 86% 30.23 in 3.0 mi Calm Calm - N/A   Overcast
4:15 AM 19.4 °F 14.3 °F 17.6 °F 93% 30.22 in 3.0 mi South 3.5 mph - N/A   Overcast
4:35 AM 19.4 °F 14.3 °F 17.6 °F 93% 30.22 in 3.0 mi South 3.5 mph - N/A   Overcast
4:55 AM 19.4 °F - 15.8 °F 86% 30.22 in 3.0 mi Calm Calm - N/A   Overcast
5:15 AM 19.4 °F - 15.8 °F 86% 30.22 in 3.0 mi Calm Calm - N/A   Overcast
5:55 AM 19.4 °F - 15.8 °F 86% 30.23 in 3.0 mi Calm Calm - N/A   Overcast
6:15 AM 19.4 °F - 15.8 °F 86% 30.24 in 3.0 mi Calm Calm - N/A   Overcast
6:35 AM 21.2 °F - 17.6 °F 86% 30.25 in 3.0 mi Calm Calm - N/A   Overcast
6:47 AM 21.2 °F - 17.6 °F 86% 30.25 in 3.0 mi Calm Calm - N/A   Overcast
7:47 AM 21.2 °F - 17.6 °F 86% 30.27 in 2.0 mi Calm Calm - N/A   Overcast
8:48 AM 21.2 °F - 17.6 °F 86% 30.28 in 2.0 mi Calm Calm - N/A   Overcast
9:47 AM 21.2 °F - 17.6 °F 86% 30.30 in 2.0 mi Calm Calm - N/A   Overcast
11:57 AM 24.8 °F - 19.4 °F 80% 30.30 in 3.0 mi Calm Calm - N/A   Mostly Cloudy
12:50 PM 26.6 °F 22.6 °F 17.6 °F 69% 30.30 in 3.0 mi Variable 3.5 mph - N/A   Mostly Cloudy
2:50 PM 26.6 °F - 19.4 °F 74% 30.31 in 3.0 mi Calm Calm - N/A   Haze
3:50 PM 26.6 °F - 17.6 °F 69% 30.32 in 10.0 mi Calm Calm - N/A   Haze
5:20 PM 26.6 °F - 19.4 °F 74% 30.34 in 3.0 mi Calm Calm - N/A   Haze
5:49 PM 26.6 °F - 21.2 °F 80% 30.35 in 3.0 mi Calm Calm - N/A   Haze
6:49 PM 26.6 °F - 21.2 °F 80% 30.36 in 3.0 mi Calm Calm - N/A   Haze
8:58 PM 26.6 °F - 21.2 °F 80% 30.40 in 7.0 mi Calm Calm - N/A   Overcast
9:15 PM 26.6 °F 21.2 °F 21.2 °F 80% 30.40 in 4.0 mi SE 4.6 mph - N/A   Overcast
9:35 PM 24.8 °F 20.5 °F 21.2 °F 86% 30.40 in 4.0 mi SE 3.5 mph - N/A   Mostly Cloudy
9:55 PM 24.8 °F - 19.4 °F 80% 30.40 in 2.5 mi Calm Calm - N/A   Partly Cloudy
10:15 PM 23.0 °F - 21.2 °F 93% 30.40 in 2.5 mi Calm Calm - N/A   Clear
11:15 PM 17.6 °F 10.7 °F 15.8 °F 93% 30.41 in 1.5 mi South 4.6 mph - N/A   Clear
11:35 PM 17.6 °F 12.3 °F 15.8 °F 93% 30.41 in 2.0 mi ESE 3.5 mph - N/A   Clear
11:55 PM 15.8 °F - 14.0 °F 93% 30.41 in 1.8 mi Calm Calm - N/A   Clear